Regional Weather Roundup
Issued by NWS

Home | Current Version | Previous Version | Text Only | Print | Product List | Glossary Off
Versions: 1 2 3 4 5 6 7 8 9 10 11 12 13 14 15 16 17 18 19 20 21 22 23 24 25 26 27 28 29 30 31 32 33 34 35 36 37 38 39 40 41 42 43 44 45 46 47 48 49 50

000
ASUS45 KPSR 301100
RWRAZ

ARIZONA HOURLY REGIONAL WEATHER ROUNDUP
NATIONAL WEATHER SERVICE PHOENIX AZ
400 AM MST THU JUL 30 2015

NOTE: FAIR INDICATES FEW OR NO CLOUDS BELOW 12,000 FEET WITH NO
SIGNIFICANT WEATHER AND/OR OBSTRUCTIONS TO VISIBILITY.

AZZ001>003-036-301200-
NORTHWEST ARIZONA

CITY           SKY/WX    TMP DP  RH WIND       PRES   REMARKS
KINGMAN        CLOUDY    77  57  50 SE7       30.12S
$$

AZZ004>008-015-016-018-301200-
NORTH CENTRAL ARIZONA

CITY           SKY/WX    TMP DP  RH WIND       PRES   REMARKS
GRAND CANYON   CLOUDY    57  47  69 CALM      30.38S
WILLIAMS       CLOUDY    59  50  72 S7        30.44R
PRESCOTT       CLOUDY    68  57  68 NW5       30.25S
FLAGSTAFF      NOT AVBL
PAYSON         CLOUDY    64  61  88 NE3       30.27S
PAGE           PTCLDY    73  55  53 S7        30.21R
$$

AZZ009>014-017-301200-
NORTHEAST ARIZONA

CITY           SKY/WX    TMP DP  RH WIND       PRES   REMARKS
WINSLOW        NOT AVBL
SAINT JOHNS    CLOUDY    66  57  72 NE3       30.29S
SHOW LOW       CLOUDY    57  55  94 CALM      30.34S
$$

AZZ023-301200-
GREATER PHOENIX AREA

CITY           SKY/WX    TMP DP  RH WIND       PRES   REMARKS
PHOENIX        MOCLDY    85  63  47 E5        29.95S
DEER VALLEY    MOCLDY    83  61  47 NE3       29.99R
SCOTTSDALE     MOCLDY    83  63  50 CALM      30.00R
$$

AZZ027-028-301200-
SOUTHWEST MARICOPA COUNTY AND PINAL COUNTY

CITY           SKY/WX    TMP DP  RH WIND       PRES   REMARKS
CASA GRANDE    MOCLDY    82  63  51 NE10      29.97S
$$

AZZ503-504-507>509-301200-
SOUTHEAST ARIZONA

CITY           SKY/WX    TMP DP  RH WIND       PRES   REMARKS
TUCSON         PTCLDY    75  64  68 SE9       30.07S
NOGALES        CLEAR     66  61  84 NE6       30.15S
SAFFORD        CLOUDY    72  65  78 SE7       30.13R
$$

AZZ020-021-025-026-031-301200-
SOUTHWEST ARIZONA

CITY           SKY/WX    TMP DP  RH WIND       PRES   REMARKS
YUMA           NOT AVBL
$$

CAZ031-033-041-043-047-048-061-301200-
SOUTHERN CALIFORNIA

CITY           SKY/WX    TMP DP  RH WIND       PRES   REMARKS
DOWNTOWN L.A.  CLEAR     68  63  84 CALM      29.96S
L.A. AIRPORT   PTCLDY    68  63  84 W7        29.97S
SAN DIEGO      MOCLDY    71  64  78 NW6       29.97S
BURBANK        CLEAR     73  62  68 S3        29.97S
ONTARIO        PTCLDY    71  62  73 S5        29.98S
RIVERSIDE      CLEAR     72  63  73 CALM      29.98S
PALM SPRINGS   CLOUDY    90  64  42 CALM      29.91F
EL CENTRO NAS  CLEAR     82  68  62 E6        29.87S
IMPERIAL       CLEAR     86  69  56 E7        29.85S
BLYTHE         MOCLDY    92  61  35 S9        29.87F
$$

NVZ020-UTZ003-301200-
SOUTHERN NEVADA-UTAH

CITY           SKY/WX    TMP DP  RH WIND       PRES   REMARKS
LAS VEGAS      NOT AVBL
SALT LAKE CITY CLEAR     62  39  42 S8        30.25F
$$

NMZ009-TXZ055-301200-
NEW MEXICO-WEST TEXAS

CITY           SKY/WX    TMP DP  RH WIND       PRES   REMARKS
ALBUQUERQUE    CLOUDY    67  58  72 E14       30.35F
EL PASO        TSTM      69  66  90 N15       30.23R
$$


........................KEY........................
SKY/WX - SKY CONDITION/WEATHER
TMP    - TEMPERATURE IN FAHRENHEIT
DP     - DEW POINT IN FAHRENHEIT
RH     - RELATIVE HUMIDITY IN PERCENT
WIND   - DIRECTION AND SPEED IN MILES PER HOUR (MPH)
VRB    - VARIABLE WIND DIRECTION
PRES   - MEAN SEA LEVEL PRESSURE IN INCHES OF MERCURY
         F - FALLING PRESSURE   R - RISING PRESSURE
         S - STEADY PRESSURE
VSB    - VISIBILITY IN MILES
HX     - HEAT INDEX IN FAHRENHEIT
WCI    - WIND CHILL INDEX IN FAHRENHEIT
TC     - TEMPERATURE IN CELSIUS WHICH IS ALSO KNOWN AS
         TEMPERATURE IN CENTIGRADE
AFB    - AIR FORCE BASE
         LUKE AFB IS LUKE AIR FORCE BASE
         DAVIS-MONTHAN IS DAVIS-MONTHAN AIR FORCE BASE
NAS    - NAVAL AIR STATION
         EL CENTRO NAS IS EL CENTRO NAVAL AIR STATION
N/A    - NOT AVAILABLE



USA.gov is the U.S. government's official web portal to all federal, state and local government web resources and services.